[[{"header":{"parameterUnit":"m.s-1","parameterCategory":1,"la1":30.2991,"la2":30.254,"lo1":-89.0895,"lo2":-89.0444,"dy":0.0017,"dx":0.0017,"nx":28,"ny":28,"refTime":"2025-08-13T21:00:00:Z","depth":0,"parameterNumber":2,"parameterNumberName":"U-component_of_WINDS"},"data":[0,0,0,0,0,0,0,0,0,0,0,0,0,0,0,0,0,0,0,0,0,0,0,0,0,0,0,0,0,0,0,0,0,0,0,0,0,0,0,0,0,0,0,0,0,0,0,0,0,0,0,0,0,0,0,0,0,0,1.8992,1.8992,0,1.9042,1.9043,1.9043,1.9012,1.901,1.9009,1.9007,1.9066,1.9069,1.9072,0,0,0,0,0,0,0,0,0,0,0,0,0,1.8875,1.8877,1.8992,1.8992,1.8993,1.9042,1.9043,1.9043,1.9012,1.901,1.9008,1.9007,1.9065,1.9069,1.9072,0,0,0,0,0,0,0,0,0,0,0,0,0,1.8926,1.8878,1.8992,1.8983,1.8983,1.9042,1.9043,1.9044,1.9012,1.901,1.9008,1.9006,1.9064,1.9068,1.9073,1.9145,0,0,1.9086,1.9088,0,0,0,0,0,0,0,0,1.8923,1.893,1.8984,1.8984,1.8984,1.9018,1.9023,1.9078,1.9013,1.9001,1.9007,1.9005,1.9053,1.9058,1.9072,1.9148,1.9151,1.9087,1.909,1.9091,1.9093,0,0,0,0,0,0,0,1.8919,1.8928,1.9012,1.8985,1.8985,1.8979,1.8984,1.9033,1.9039,1.9002,1.9,1.9006,1.9052,1.9068,1.9074,1.9152,1.9087,1.9091,1.9093,1.9095,1.9288,1.9291,0,0,0,0,0,0,1.8916,1.8925,1.901,1.9013,1.8947,1.8983,1.8988,1.901,1.9039,1.9041,1.9008,1.9004,1.9062,1.9069,1.9076,1.9161,1.9091,1.9096,1.9098,1.9286,1.9289,1.9291,0,0,0,0,0,0,1.8913,1.8923,1.9008,1.8969,1.8979,1.8987,1.9012,1.9012,1.9028,1.9043,1.9044,1.9023,1.906,1.9069,1.9127,1.9162,1.9098,1.9102,1.9283,1.9287,1.929,1.9332,0,0,0,0,0,0,1.891,1.8923,1.8949,1.8969,1.8981,1.9057,1.9014,1.9014,1.9034,1.903,1.9057,1.906,1.9059,1.9121,1.9132,1.9167,1.9105,1.928,1.9285,1.9289,1.9328,1.9337,1.9345,0,0,0,0,0,1.8906,1.8961,1.895,1.8961,1.9013,1.9059,1.9066,1.9063,1.9037,1.9064,1.9074,1.9059,1.9157,1.9127,1.9139,1.9176,1.9278,1.9283,1.9289,1.9324,1.9335,1.9345,0,0,0,0,0,0,1.8947,1.8963,1.8952,1.9015,1.9035,1.9054,1.9088,1.9075,1.9105,1.9101,1.9097,1.9104,1.9164,1.9177,1.9143,1.9248,1.9214,1.9222,1.9237,1.9247,1.9256,1.9251,1.9109,0,0,0,0,0,1.8963,1.8996,1.901,1.9064,1.9075,1.908,1.91,1.9095,1.9117,1.9127,1.9141,1.9165,1.9201,1.9226,1.926,1.933,1.9335,1.9362,1.9371,1.9378,1.9384,1.9421,1.9432,1.931,1.931,1.9309,0,0,1.8997,1.901,1.9032,1.9073,1.9088,1.9124,1.9087,1.9128,1.9155,1.9134,1.9188,1.92,1.9227,1.9291,1.932,1.9303,1.9419,1.9385,1.939,1.9393,1.9428,1.9439,1.945,1.9313,1.9313,1.9312,0,0,1.9076,1.909,1.9135,1.9151,1.9174,1.9177,1.9188,1.9209,1.9214,1.9268,1.9252,1.9287,1.935,1.9369,1.9387,1.9474,1.946,1.9486,1.9529,1.9565,1.9575,1.9583,1.9613,1.9623,1.9493,1.9493,1.9493,0,1.9116,1.9167,1.9161,1.9202,1.922,1.92,1.9247,1.9264,1.9298,1.9312,1.9293,1.937,1.9387,1.9455,1.9475,1.9492,1.9504,1.9481,1.9574,1.9582,1.959,1.9618,1.9629,1.9496,1.9495,1.9495,1.9495,0,1.9214,1.9251,1.9285,1.9315,1.9338,1.9382,1.9384,1.9408,1.9402,1.9407,1.9463,1.9483,1.952,1.9536,1.9532,1.9603,1.9591,1.9573,1.9539,1.9605,1.9631,1.9641,1.9499,1.9498,1.9498,1.9497,0,0,1.9319,1.9345,1.9357,1.937,1.9394,1.9423,1.9467,1.9501,1.9521,1.9547,1.9583,1.9636,1.9619,1.964,1.9638,1.967,1.9735,1.9647,1.9648,1.9661,1.9813,1.9824,1.9837,1.9727,1.9729,1.9731,1.981,0,1.9398,1.947,1.9466,1.9535,1.9568,1.955,1.9588,1.9609,1.9615,1.9646,1.9655,1.9691,1.9667,1.9679,1.971,1.972,1.9765,1.9715,1.9761,1.9763,1.9752,1.9851,1.9864,1.9937,1.982,1.9822,1.9823,0,1.9499,1.9524,1.9596,1.9613,1.9628,1.9661,1.9691,1.9721,1.9744,1.9747,1.9769,1.9762,1.9808,1.9773,1.9836,1.9802,1.9821,1.9829,1.9832,1.9835,1.9795,1.9854,1.9961,1.9971,1.984,1.9838,1.9837,0,1.9566,1.9618,1.9667,1.9679,1.9702,1.9726,1.9737,1.9758,1.9778,1.9806,1.9819,1.9853,1.9871,1.9898,1.9901,1.9876,1.9964,1.993,1.9967,1.9967,1.9985,1.9983,2.0094,2.0001,2.0001,2.0001,2.0001,0,1.9653,1.9696,1.9696,1.9726,1.9775,1.9772,1.9821,1.983,1.9849,1.9881,1.987,1.9901,1.9903,1.9936,1.9939,1.999,1.9999,2.0003,2.0002,2.0002,2.0001,2.0013,2.0007,2.0004,2.0003,2.0003,2.0002,0,1.9734,1.9736,1.9787,1.9805,1.981,1.9845,1.9861,1.989,1.9896,1.9937,1.9947,1.9956,1.9994,2.0,2.0045,2.0047,2.0107,2.0103,2.0098,2.0097,2.0133,2.0129,2.0253,2.0269,2.0168,2.0169,2.017,0,1.9788,1.982,1.9841,1.986,1.9872,1.9904,1.9924,1.9923,1.9944,1.9973,1.9999,2.0035,2.0063,2.0125,2.0137,2.0172,2.0167,2.0208,2.0172,2.017,2.0165,2.0162,2.0165,2.0215,2.0216,2.0217,2.0217,0,1.9883,1.9882,1.9909,1.9938,1.9961,1.9985,2.0006,2.0024,2.0025,2.0051,2.0087,2.0109,2.0154,2.019,2.0224,2.0238,2.0228,2.0229,2.0239,2.0238,2.0233,2.0234,2.0115,2.0226,2.0225,2.0224,2.0224,2.0223,1.995,1.9978,1.9996,2.0027,2.0043,2.0063,2.0091,2.0099,2.0129,2.0163,2.0162,2.0203,2.0225,2.0269,2.0286,2.0319,2.0305,2.0321,2.0324,2.0327,2.0329,2.0229,2.0325,2.0325,2.0325,2.0325,2.0325,0,2.0042,2.0053,2.0082,2.0111,2.0136,2.0123,2.0147,2.0169,2.0204,2.0225,2.0252,2.0295,2.033,2.0345,2.0379,2.0403,2.0399,2.0412,2.0409,2.0412,2.034,2.0327,2.0414,2.0414,2.0414,2.0414,2.0414,2.0414,2.0093,2.0138,2.014,2.0193,2.0205,2.0242,2.0256,2.0275,2.0292,2.0339,2.0367,2.0375,2.0394,2.043,2.0462,2.0466,2.0478,2.0492,2.0494,2.0426,2.0417,2.0408,2.0396,2.0496,2.0496,2.0562,2.0563,2.0563]},{"header":{"parameterUnit":"m.s-1","parameterCategory":1,"la1":30.2991,"la2":30.254,"lo1":-89.0895,"lo2":-89.0444,"dy":0.0017,"dx":0.0017,"nx":28,"ny":28,"refTime":"2025-08-13T21:00:00:Z","depth":0,"parameterNumber":3,"parameterNumberName":"V-component_of_WINDS"},"data":[0,0,0,0,0,0,0,0,0,0,0,0,0,0,0,0,0,0,0,0,0,0,0,0,0,0,0,0,0,0,0,0,0,0,0,0,0,0,0,0,0,0,0,0,0,0,0,0,0,0,0,0,0,0,0,0,0,0,4.7742,4.7743,0,4.7782,4.7783,4.7783,4.7773,4.7772,4.7771,4.777,4.7805,4.7807,4.7808,0,0,0,0,0,0,0,0,0,0,0,0,0,4.7652,4.7653,4.7742,4.7743,4.7743,4.7782,4.7783,4.7783,4.7773,4.7772,4.7771,4.777,4.7805,4.7807,4.7809,0,0,0,0,0,0,0,0,0,0,0,0,0,4.7691,4.7654,4.7742,4.7743,4.7744,4.7782,4.7783,4.7784,4.7773,4.7772,4.7771,4.777,4.7804,4.7806,4.7809,4.7848,0,0,4.7816,4.7818,0,0,0,0,0,0,0,0,4.7689,4.7695,4.7742,4.7743,4.7744,4.7772,4.7764,4.7805,4.7773,4.7762,4.777,4.7769,4.7795,4.7798,4.7808,4.7849,4.7851,4.7817,4.7818,4.7819,4.782,0,0,0,0,0,0,0,4.7686,4.7693,4.7758,4.7743,4.7744,4.774,4.7744,4.7771,4.7784,4.7763,4.7762,4.7767,4.7795,4.7805,4.7808,4.7851,4.7817,4.7819,4.782,4.7821,4.7926,4.7928,0,0,0,0,0,0,4.7684,4.7691,4.7757,4.7759,4.7713,4.7742,4.7747,4.7764,4.7784,4.7786,4.7768,4.7766,4.7802,4.7805,4.7809,4.7856,4.7819,4.7822,4.7823,4.7925,4.7927,4.7928,0,0,0,0,0,0,4.7682,4.769,4.7755,4.7725,4.7733,4.7745,4.7764,4.7765,4.7776,4.7788,4.7789,4.7777,4.7801,4.7806,4.7839,4.7857,4.7823,4.7825,4.7924,4.7926,4.7927,4.7949,0,0,0,0,0,0,4.7679,4.7689,4.7705,4.7725,4.7735,4.7785,4.7765,4.7767,4.7781,4.7779,4.7797,4.7798,4.78,4.7835,4.7841,4.786,4.7827,4.7922,4.7925,4.7927,4.7947,4.7951,4.7956,0,0,0,0,0,4.7676,4.7708,4.7706,4.7714,4.7755,4.7786,4.7791,4.7795,4.7782,4.7797,4.7806,4.7798,4.7854,4.7838,4.7845,4.7865,4.7921,4.7924,4.7927,4.7945,4.795,4.7955,0,0,0,0,0,0,4.7687,4.7711,4.7708,4.7748,4.7766,4.7784,4.7804,4.7801,4.782,4.7817,4.7819,4.7823,4.7856,4.7864,4.7846,4.7903,4.7886,4.789,4.7897,4.7903,4.7907,4.7903,4.7829,0,0,0,0,0,4.7694,4.772,4.7738,4.7772,4.7781,4.7791,4.7805,4.7806,4.7823,4.783,4.784,4.7855,4.7876,4.789,4.791,4.7948,4.7951,4.7965,4.797,4.7973,4.7976,4.7997,4.8003,4.7938,4.7938,4.7938,0,0,4.7709,4.7725,4.774,4.7774,4.7788,4.7812,4.7797,4.7823,4.7841,4.7833,4.7865,4.7873,4.789,4.7926,4.7942,4.7933,4.7996,4.7977,4.798,4.7981,4.8001,4.8007,4.8012,4.794,4.7939,4.7939,0,0,4.7748,4.7763,4.7793,4.7808,4.783,4.7837,4.7844,4.7864,4.787,4.7902,4.7897,4.7917,4.7954,4.7966,4.7978,4.8024,4.8017,4.803,4.8053,4.8073,4.8078,4.8082,4.8098,4.8104,4.8034,4.8034,4.8034,0,4.7762,4.7801,4.7808,4.7836,4.785,4.7847,4.7876,4.7889,4.7916,4.7925,4.7916,4.7963,4.7974,4.8012,4.8024,4.8033,4.804,4.8027,4.8077,4.8082,4.8086,4.8101,4.8107,4.8035,4.8035,4.8035,4.8035,0,4.7818,4.7845,4.7866,4.7894,4.7911,4.7939,4.7949,4.7965,4.7966,4.7973,4.8006,4.802,4.8043,4.8053,4.8053,4.8092,4.8085,4.8077,4.8058,4.8093,4.8107,4.8113,4.8037,4.8037,4.8036,4.8036,0,0,4.7861,4.7896,4.7903,4.7916,4.7942,4.7962,4.799,4.8015,4.8028,4.8047,4.8069,4.8102,4.8094,4.8107,4.8108,4.8126,4.8161,4.8115,4.8115,4.8122,4.8204,4.8209,4.8216,4.8158,4.8159,4.816,4.8202,0,4.7902,4.7954,4.7961,4.8006,4.803,4.8029,4.8053,4.807,4.8079,4.8099,4.8108,4.813,4.8119,4.8127,4.8145,4.8153,4.8177,4.815,4.8176,4.8177,4.8171,4.8223,4.8229,4.8268,4.8208,4.8208,4.8209,0,4.7955,4.7978,4.8026,4.805,4.806,4.8082,4.8106,4.8127,4.8146,4.8151,4.8166,4.8166,4.8193,4.8176,4.8213,4.8194,4.8206,4.8212,4.8213,4.8214,4.8194,4.8224,4.8281,4.8286,4.8218,4.8217,4.8217,0,4.7981,4.8024,4.8059,4.807,4.8098,4.8114,4.8126,4.8144,4.8159,4.818,4.8189,4.8212,4.8224,4.8241,4.8246,4.8233,4.8283,4.8266,4.8286,4.8286,4.8295,4.8294,4.8352,4.8305,4.8304,4.8304,4.8304,0,4.8024,4.8053,4.8071,4.8092,4.8125,4.8133,4.8164,4.8175,4.8192,4.8214,4.8214,4.8234,4.8241,4.8261,4.8266,4.8295,4.8301,4.8304,4.8304,4.8303,4.8303,4.8309,4.8306,4.8306,4.8306,4.8305,4.8305,0,4.8057,4.8071,4.8109,4.8133,4.814,4.8163,4.8183,4.8202,4.8212,4.824,4.8246,4.826,4.8285,4.8293,4.8321,4.8324,4.8359,4.8357,4.8353,4.8352,4.8372,4.837,4.8435,4.8444,4.8392,4.8393,4.8393,0,4.8083,4.8106,4.8135,4.8151,4.8164,4.819,4.8206,4.8215,4.8232,4.8257,4.8273,4.8298,4.8319,4.8358,4.8369,4.8391,4.839,4.8411,4.8393,4.8391,4.8389,4.8387,4.8389,4.8414,4.8415,4.8415,4.8415,0,4.8127,4.8134,4.8158,4.8186,4.8207,4.8228,4.8248,4.8261,4.8273,4.8292,4.8319,4.8335,4.8366,4.8391,4.8414,4.8424,4.8421,4.8422,4.8427,4.8425,4.8422,4.8423,4.8361,4.842,4.8419,4.8419,4.8419,4.8418,4.8157,4.8177,4.8201,4.8229,4.8246,4.8266,4.8286,4.83,4.8323,4.8351,4.8355,4.8383,4.8402,4.8434,4.8446,4.8467,4.846,4.8469,4.847,4.8472,4.8473,4.842,4.8471,4.8471,4.8471,4.8471,4.8471,0,4.82,4.8216,4.8242,4.8272,4.8294,4.8294,4.8317,4.8334,4.8361,4.838,4.8401,4.8432,4.8457,4.8471,4.8495,4.8509,4.8508,4.8515,4.8513,4.8515,4.8478,4.847,4.8515,4.8515,4.8515,4.8515,4.8515,4.8515,4.8224,4.8259,4.8269,4.8312,4.8328,4.8358,4.8371,4.8389,4.8405,4.8441,4.8462,4.8472,4.8489,4.8515,4.8537,4.8541,4.8549,4.8556,4.8558,4.8523,4.8518,4.8513,4.8506,4.8558,4.8558,4.8593,4.8594,4.8594]}]]